Regional Weather Roundup
Issued by NWS Cleveland, OH

Home | Current Version | Previous Version | Text Only | Print | Product List | Glossary Off
Versions: 1 2 3 4 5 6 7 8 9 10 11 12 13 14 15 16 17 18 19 20 21 22 23 24 25 26 27 28 29 30 31 32 33 34 35 36 37 38 39 40 41 42 43 44 45 46 47 48 49 50

000
ASUS41 KCLE 060602
RWRCLE
OHIO REGIONAL WEATHER ROUNDUP
NATIONAL WEATHER SERVICE CLEVELAND, OH
200 AM EDT WED MAY 06 2015

NOTE: "FAIR" INDICATES FEW OR NO CLOUDS BELOW 12,000 FEET WITH NO
SIGNIFICANT WEATHER AND/OR OBSTRUCTIONS TO VISIBILITY.

OHZ001>008-015>018-024>027-034-035-043-044-060700-
   NORTHWEST OHIO

CITY           SKY/WX    TMP DP  RH WIND       PRES   REMARKS
DEFIANCE       CLOUDY    53  51  93 E6        30.25F FOG
FINDLAY        FOG       54  52  93 E7        30.23S VSB 1
TOLEDO EXPRESS CLOUDY    52  51  97 N5        30.27R FOG
TOLEDO EXEC    CLOUDY    52  49  89 NE6       30.27R FOG
LIMA           FOG       54  54 100 NE6       30.23S VSB 1/2
$$

OHZ009>014-019>023-028>033-038-089-060700-
   NORTHEAST OHIO

CITY           SKY/WX    TMP DP  RH WIND       PRES   REMARKS
CLE-HOPKINS    CLOUDY    58  56  93 SE5       30.25F FOG
CLE-LAKEFRONT  CLOUDY    55  53  93 VRB3      30.22F FOG
CUY CO. ARPT   NOT AVBL
LORAIN-ELYRIA  MOCLDY    53  51  93 S3        30.24F FOG
ASHTABULA      LGT RAIN  54  53  97 CALM      30.26S FOG
AKRON-CANTON   PTCLDY    59  56  89 E6        30.25F FOG
WOOSTER        PTCLDY    55  54  96 SE6       30.24F FOG
MANSFIELD      PTCLDY    55  54  96 E3        30.24S FOG
YOUNGSTOWN     CLOUDY    59  58  96 N3        30.27R FOG
$$

OHZ042-051>053-060>062-070>072-077>081-060700-
  SOUTHWEST OHIO

CITY           SKY/WX    TMP DP  RH WIND       PRES   REMARKS
CINC-COVINGTON CLEAR     59  56  89 S6        30.20F
CINC-LUNKEN    CLEAR     57  56  96 CALM      30.21S
HAMILTON       CLEAR     58  55  90 CALM      30.21S
DAYTON         PTCLDY    64  54  69 NW5       30.22R
WRIGHT-PAT AFB NOT AVBL
DAYTON GENERAL CLEAR     65  53  65 CALM      30.20S
WILMINGTON     CLEAR     62  51  67 S3        30.21S
$$

OHZ036-037-039>041-045>050-054>059-063>069-073>076-082>088-060700-
  CENTRAL AND SOUTHEAST OHIO

CITY           SKY/WX    TMP DP  RH WIND       PRES   REMARKS
COLUMBUS       PTCLDY    59  56  89 E3        30.20S
OSU AIRPORT    PTCLDY    60  57  89 CALM      30.21S FOG
BOLTON FIELD   NOT AVBL
RICKENBACK AFB NOT AVBL
NEWARK         CLEAR     57  55  93 CALM      30.21S FOG
MARION         CLOUDY    58  55  90 NE6       30.22S FOG
LANCASTER      CLEAR     57  54  89 CALM      30.21S
ZANESVILLE     CLEAR     58  56  93 CALM      30.21S FOG
NEW PHILLY     FOG       60  57  89 CALM      30.24S VSB<1/4
$$


USA.gov is the U.S. government's official web portal to all federal, state and local government web resources and services.